Location: Lenomiya Observatory
(32.9017°N, 111.7482°W)
Time: 15:27:37
(UTC-07:00)

N. Korean satellite - Visible Passes

Search period start: 17 October 2018 00:00
Search period end: 27 October 2018 00:00
Orbit: 459 x 510 km, 97.2° (Epoch: 16 October)

Date Brightness Start Highest point End Pass type
(mag) Time Alt. Az. Time Alt. Az. Time Alt. Az.
17 Oct 10.4 05:47:11 10° ENE 05:48:46 12° E 05:50:18 10° ESE visible
18 Oct 9.9 19:00:03 10° SW 19:02:31 17° W 19:05:01 10° NW visible
19 Oct 8.5 18:34:35 10° SSW 18:38:00 36° W 18:41:28 10° NNW visible
20 Oct 9.6 06:06:07 10° NE 06:09:03 23° E 06:11:55 10° SSE visible
20 Oct 6.8 18:09:53 10° S 18:13:34 83° WSW 18:17:20 10° NNW visible
21 Oct 10.6 05:43:37 10° ENE 05:44:29 11° E 05:45:19 10° ESE visible
22 Oct 9.7 18:55:32 10° SW 18:58:14 19° W 19:00:59 10° NW visible
23 Oct 8.2 18:30:13 10° S 18:33:44 41° W 18:37:17 10° NNW visible
24 Oct 9.8 06:02:02 10° NE 06:04:44 20° E 06:07:23 10° SE visible
24 Oct 6.6 18:05:35 10° SSE 18:09:18 86° ENE 18:13:03 10° N visible
25 Oct 10.5 19:18:02 10° W 19:18:30 10° W 19:18:58 10° W visible
26 Oct 9.5 18:51:01 10° SSW 18:53:55 22° W 18:56:51 10° NW visible
